This is the latest recevied weather packets stored in our database for station/object K2ATL. If no packets are shown the sender has not sent any weather packets the latest 10 day(s).
| Time | Temp. | Humidity | Pressure | Rain* | Wind** | Luminosity | Snow |
|---|---|---|---|---|---|---|---|
| 1777409786 | 17.22° C | 89% | 1103.5 hPa | 0 mm | - | 71 W/m² | - |
| 1777409482 | 17.22° C | 87% | 1103.5 hPa | 0 mm | - | 71 W/m² | - |
| 1777409178 | 17.22° C | 87% | 1103.8 hPa | 0 mm | - | 98 W/m² | - |
| 1777408874 | 16.67° C | 88% | 1104.1 hPa | 0 mm | - | 113 W/m² | - |
| 1777408570 | 17.22° C | 87% | 1104.5 hPa | 0 mm | - | 91 W/m² | - |
| 1777408266 | 17.78° C | 87% | 1104.6 hPa | 0 mm | - | 72 W/m² | - |
| 1777407960 | 17.22° C | 87% | 1104.9 hPa | 0 mm | - | 120 W/m² | - |
| 1777407658 | 18.33° C | 85% | 1104.8 hPa | 0 mm | - | 115 W/m² | - |
| 1777407358 | 17.78° C | 85% | 1104.7 hPa | 0 mm | - | 195 W/m² | - |
| 1777407053 | 17.78° C | 85% | 1104.7 hPa | 0 mm | - | 192 W/m² | - |
| 1777406749 | 17.78° C | 86% | 1104.7 hPa | 0 mm | - | 109 W/m² | - |
| 1777406444 | 17.78° C | 85% | 1104.8 hPa | 0 mm | - | 118 W/m² | - |
| 1777406144 | 17.78° C | 85% | 1104.6 hPa | 0 mm | - | 165 W/m² | - |
| 1777405840 | 17.22° C | 86% | 1104.9 hPa | 0 mm | - | 259 W/m² | - |
| 1777405536 | 18.33° C | 83% | 1105.1 hPa | 0 mm | - | 179 W/m² | - |
| 1777405234 | 18.89° C | 81% | 1105 hPa | 0 mm | - | 258 W/m² | - |
| 1777404932 | 19.44° C | 79% | 1105 hPa | 0 mm | - | 180 W/m² | - |
| 1777404628 | 18.89° C | 79% | 1105.1 hPa | 0 mm | - | 351 W/m² | - |
| 1777404324 | 20° C | 77% | 1104.8 hPa | 0 mm | - | 646 W/m² | - |
| 1777404021 | 19.44° C | 80% | 1104.9 hPa | 0 mm | - | 450 W/m² | - |
| 1777403716 | 18.89° C | 79% | 1104.9 hPa | 0 mm | - | 412 W/m² | - |
| 1777403415 | 20° C | 78% | 1105 hPa | 0 mm | - | 290 W/m² | - |
| 1777403110 | 20.56° C | 74% | 1105 hPa | 0 mm | - | 376 W/m² | - |
| 1777402806 | 21.67° C | 70% | 1104.8 hPa | 0 mm | - | 990 W/m² | - |
| 1777402503 | 22.22° C | 70% | 1105 hPa | 0 mm | - | 296 W/m² | - |
* Rain latest hour (hover to see other rain measurements)
** Current wind speed in m/s (hover to see current wind gust speed)